Volver al catálogo

COSMOS 1275 DEB

ActivoPO
NORAD 12727·DEBRIS·🇷🇺 Russia

Lanzado Jun 4, 1981 desde Plesetsk Cosmodrome

Loading…

Próximos Pases (próximas 24 horas)

TLE

ActualizadoSource: Space-Track

Época: Sep 14, 2026, 10:23 UTC

1 12727U 81053BU  26257.43282214  .00001339  00000-0  96687-3 0  9999
2 12727  83.2867 310.5094 0088349 205.6038 168.1516 13.94144522270713

Sigue COSMOS 1275 DEB en tiempo real con AllMySat

Download on the App Store